Change the Weather History Date:

Sunday, January 29, 2012

  Actual Average (KDTW) Record (KDTW)
Temperature  
Mean Temperature 32 °F 26 °F  
Max Temperature 35 °F 32 °F 58 °F (1914)
Min Temperature 28 °F 19 °F -7 °F (1885)
Degree Days  
Heating Degree Days 34 39  
Month to date heating degree days 1148  
Since 1 July heating degree days 3445  
Cooling Degree Days 0 0  
Month to date cooling degree days 0  
Year to date cooling degree days 0  
Moisture  
Dew Point 24 °F    
Average Humidity 75    
Maximum Humidity 87    
Minimum Humidity 65    
Precipitation  
Precipitation 0.00 in 0.06 in 0.84 in (1969)
Month to date precipitation 1.84  
Year to date precipitation 1.84  
Snow  
Snow 0.00 in 0.40 in 4.50 in (1909)
Month to date snowfall 11.7  
Since 1 July snowfall 22.9  
Snow Depth -    
Sea Level Pressure  
Sea Level Pressure 29.97 in    
Wind  
Wind Speed 13 mph (WSW)    
Max Wind Speed 25 mph    
Max Gust Speed 33 mph    
Visibility 9 miles    
Events Snow    
T = Trace of Precipitation, MM = Missing Value Source: NWS Daily Summary

Daily Weather History Graph

Daily Weather History Graph

Search for Another Location

Airport or City:

Trip Planner

Search our weather history database for the weather conditions in past years. The results will help you decide how hot, cold, wet, or windy it might be!

Date:

Astronomy

Jan. 29, 2012 Rise Set
Actual Time 7:49 AM EST 5:42 PM EST
Civil Twilight 7:19 AM EST 6:12 PM EST
Nautical Twilight 6:45 AM EST 6:46 PM EST
Astronomical Twilight 6:12 AM EST 7:19 PM EST
Moon 10:31 AM EST (1/29) No Moon Set
Length of Visible Light 10h 53m
Length of Day
9h 53m
Waxing Crescent, 36% of the Moon is Illuminated
Jan 29
Waxing Crescent
Jan 30
First Quarter
Feb 7
Full
Feb 14
Last Quarter
Feb 21
New

Hourly Weather History & Observations

Time (EST) Temp. Windchill Dew Point Humidity Pressure Visibility Wind Dir Wind Speed Gust Speed Precip Events Conditions
12:14 AM 30.2 °F 18.5 °F 21.2 °F 69% 30.04 in 10.0 mi WSW 17.3 mph 20.7 mph N/A   Clear
12:34 AM 30.2 °F 19.8 °F 21.2 °F 69% 30.04 in 10.0 mi WSW 13.8 mph 21.9 mph N/A   Clear
12:54 AM 30.2 °F 18.9 °F 21.2 °F 69% 30.03 in 10.0 mi WSW 16.1 mph 24.2 mph N/A   Clear
1:14 AM 30.2 °F 20.8 °F 21.2 °F 69% 30.03 in 10.0 mi WSW 11.5 mph 23.0 mph N/A   Clear
1:34 AM 30.2 °F 21.9 °F 21.2 °F 69% 30.03 in 10.0 mi WSW 9.2 mph - N/A   Clear
1:54 AM 30.2 °F 22.6 °F 21.2 °F 69% 30.03 in 10.0 mi WSW 8.1 mph 16.1 mph N/A   Clear
2:14 AM 30.2 °F 20.2 °F 21.2 °F 69% 30.03 in 10.0 mi SW 12.7 mph 16.1 mph N/A   Clear
2:34 AM 30.2 °F 19.8 °F 23.0 °F 75% 30.02 in 10.0 mi WSW 13.8 mph 21.9 mph N/A   Clear
2:54 AM 30.2 °F 19.8 °F 24.8 °F 80% 30.02 in 10.0 mi WSW 13.8 mph 19.6 mph N/A   Scattered Clouds
3:14 AM 30.2 °F 21.9 °F 24.8 °F 80% 30.02 in 10.0 mi SW 9.2 mph - N/A   Mostly Cloudy
3:33 AM 30.2 °F 21.3 °F 24.8 °F 80% 30.01 in 10.0 mi SW 10.4 mph - N/A   Scattered Clouds
3:54 AM 30.2 °F 21.9 °F 24.8 °F 80% 30.01 in 10.0 mi SW 9.2 mph - N/A   Clear
4:14 AM 30.2 °F 21.3 °F 23.0 °F 75% 30.00 in 10.0 mi SW 10.4 mph - N/A   Clear
4:35 AM 30.2 °F 21.3 °F 23.0 °F 75% 29.99 in 10.0 mi SSW 10.4 mph - N/A   Clear
4:54 AM 30.2 °F 19.3 °F 23.0 °F 75% 29.99 in 10.0 mi SW 15.0 mph - N/A   Clear
5:14 AM 30.2 °F 20.8 °F 23.0 °F 75% 29.99 in 10.0 mi SW 11.5 mph 17.3 mph N/A   Clear
5:34 AM 32.0 °F 21.2 °F 23.0 °F 69% 29.99 in 10.0 mi WSW 16.1 mph 23.0 mph N/A   Clear
5:54 AM 32.0 °F 23.0 °F 23.0 °F 69% 29.98 in 10.0 mi WSW 11.5 mph 20.7 mph N/A   Clear
6:14 AM 30.2 °F 20.2 °F 23.0 °F 75% 29.98 in 10.0 mi WSW 12.7 mph 19.6 mph N/A   Clear
6:34 AM 30.2 °F 20.8 °F 23.0 °F 75% 29.98 in 10.0 mi WSW 11.5 mph 19.6 mph N/A   Clear
6:54 AM 30.2 °F 19.8 °F 23.0 °F 75% 29.98 in 10.0 mi WSW 13.8 mph 21.9 mph N/A   Clear
7:13 AM 30.2 °F 21.9 °F 23.0 °F 75% 29.98 in 10.0 mi SW 9.2 mph 17.3 mph N/A   Clear
7:34 AM 30.2 °F 20.2 °F 23.0 °F 75% 29.98 in 10.0 mi SW 12.7 mph 18.4 mph N/A   Clear
7:54 AM 30.2 °F 21.9 °F 23.0 °F 75% 29.99 in 10.0 mi WSW 9.2 mph - N/A   Clear
8:15 AM 30.2 °F 21.9 °F 23.0 °F 75% 29.98 in 10.0 mi SW 9.2 mph - N/A   Clear
8:34 AM 32.0 °F 24.8 °F 24.8 °F 75% 29.98 in 10.0 mi SW 8.1 mph - N/A   Clear
8:54 AM 32.0 °F 24.2 °F 24.8 °F 75% 29.98 in 10.0 mi WSW 9.2 mph - N/A   Clear
9:14 AM 32.0 °F 24.8 °F 24.8 °F 75% 29.98 in 10.0 mi WSW 8.1 mph - N/A   Scattered Clouds
9:34 AM 33.8 °F 27.7 °F 24.8 °F 70% 29.97 in 10.0 mi SW 6.9 mph - N/A   Mostly Cloudy
9:54 AM 33.8 °F 27.7 °F 24.8 °F 70% 29.96 in 10.0 mi SW 6.9 mph - N/A   Scattered Clouds
10:14 AM 33.8 °F 27.0 °F 24.8 °F 70% 29.95 in 10.0 mi SW 8.1 mph - N/A   Scattered Clouds
10:34 AM 35.6 °F 30.7 °F 24.8 °F 65% 29.95 in 10.0 mi SW 5.8 mph - N/A   Mostly Cloudy
10:54 AM 35.6 °F 28.6 °F 24.8 °F 65% 29.95 in 10.0 mi SSW 9.2 mph - N/A   Mostly Cloudy
11:14 AM 35.6 °F 29.2 °F 24.8 °F 65% 29.93 in 10.0 mi SW 8.1 mph - N/A   Scattered Clouds
11:34 AM 35.6 °F 28.0 °F 24.8 °F 65% 29.92 in 10.0 mi SSW 10.4 mph 17.3 mph N/A Snow Light Snow
12:15 PM 35.6 °F 27.1 °F 28.4 °F 75% 29.90 in 3.0 mi SSW 12.7 mph 19.6 mph N/A Snow Light Snow
12:34 PM 35.6 °F 27.5 °F 26.6 °F 70% 29.89 in 10.0 mi SW 11.5 mph 19.6 mph N/A   Overcast
12:54 PM 35.6 °F 26.2 °F 26.6 °F 70% 29.89 in 5.0 mi WSW 15.0 mph 25.3 mph N/A Snow Light Snow
1:14 PM 33.8 °F 24.8 °F 28.4 °F 81% 29.88 in 1.2 mi SW 12.7 mph 28.8 mph N/A Snow Light Snow
1:34 PM 33.8 °F 24.8 °F 30.2 °F 87% 29.87 in 2.0 mi SW 12.7 mph 17.3 mph N/A Snow Light Snow
1:54 PM 33.8 °F 25.3 °F 30.2 °F 87% 29.87 in 3.0 mi SW 11.5 mph 18.4 mph N/A Snow Light Snow
2:14 PM 33.8 °F 24.8 °F 30.2 °F 87% 29.86 in 10.0 mi SW 12.7 mph 18.4 mph N/A Snow Light Snow
2:34 PM 33.8 °F 23.5 °F 28.4 °F 81% 29.86 in 10.0 mi SW 16.1 mph 21.9 mph N/A   Overcast
2:54 PM 33.8 °F 23.9 °F 28.4 °F 81% 29.86 in 3.0 mi WSW 15.0 mph 24.2 mph N/A Snow Light Snow
3:14 PM 33.8 °F 24.3 °F 28.4 °F 81% 29.87 in 2.5 mi SW 13.8 mph 21.9 mph N/A Snow Light Snow
3:34 PM 32.0 °F 22.5 °F 28.4 °F 87% 29.88 in 1.5 mi WSW 12.7 mph - N/A Snow Light Snow
3:54 PM 33.8 °F 22.8 °F 30.2 °F 87% 29.89 in 7.0 mi WSW 18.4 mph - N/A Snow Light Snow
4:14 PM 33.8 °F 23.9 °F 28.4 °F 81% 29.90 in 2.0 mi WSW 15.0 mph 21.9 mph N/A Snow Light Snow
4:35 PM 32.0 °F 18.6 °F 28.4 °F 87% 29.94 in 7.0 mi WNW 25.3 mph 33.4 mph N/A Snow Light Snow
4:54 PM 30.2 °F 18.1 °F 24.8 °F 80% 29.97 in 10.0 mi NW 18.4 mph 31.1 mph N/A   Scattered Clouds
5:14 PM 30.2 °F 16.5 °F 24.8 °F 80% 30.00 in 10.0 mi WNW 24.2 mph 31.1 mph N/A   Mostly Cloudy
5:35 PM 30.2 °F 17.1 °F 21.2 °F 69% 30.02 in 10.0 mi WNW 21.9 mph 28.8 mph N/A   Overcast
5:54 PM 30.2 °F 17.4 °F 21.2 °F 69% 30.03 in 10.0 mi NW 20.7 mph 28.8 mph N/A   Overcast
6:14 PM 28.4 °F 18.0 °F 19.4 °F 69% 30.05 in 10.0 mi WNW 12.7 mph 21.9 mph N/A   Scattered Clouds
6:34 PM 28.4 °F 19.1 °F 19.4 °F 69% 30.06 in 10.0 mi WNW 10.4 mph - N/A   Scattered Clouds
6:54 PM 28.4 °F 20.4 °F 19.4 °F 69% 30.08 in 10.0 mi West 8.1 mph - N/A   Scattered Clouds
7:14 PM 28.4 °F 20.4 °F 19.4 °F 69% 30.09 in 10.0 mi West 8.1 mph - N/A   Mostly Cloudy
7:34 PM 28.4 °F 18.5 °F 21.2 °F 74% 30.10 in 10.0 mi West 11.5 mph 18.4 mph N/A   Overcast
7:54 PM 28.4 °F 17.5 °F 17.6 °F 64% 30.11 in 10.0 mi West 13.8 mph - N/A   Overcast
8:07 PM 28.4 °F 17.5 °F 17.6 °F 64% 30.13 in 10.0 mi West 13.8 mph 24.2 mph N/A   Overcast
8:21 PM 28.4 °F 17.0 °F 15.8 °F 59% 30.14 in 10.0 mi WNW 15.0 mph 25.3 mph N/A   Mostly Cloudy
8:41 PM 28.4 °F 19.1 °F 15.8 °F 59% 30.15 in 10.0 mi WNW 10.4 mph 19.6 mph N/A   Overcast
9:01 PM 28.4 °F 19.1 °F 17.6 °F 64% 30.16 in 10.0 mi West 10.4 mph - N/A   Overcast
9:21 PM 28.4 °F 17.5 °F 15.8 °F 59% 30.16 in 10.0 mi WNW 13.8 mph 20.7 mph N/A   Overcast
9:41 PM 28.4 °F 17.0 °F 15.8 °F 59% 30.16 in 10.0 mi WNW 15.0 mph 21.9 mph N/A   Overcast
10:01 PM 28.4 °F 17.0 °F 14.0 °F 55% 30.17 in 10.0 mi WNW 15.0 mph 23.0 mph N/A   Mostly Cloudy
10:21 PM 26.6 °F 16.2 °F 15.8 °F 64% 30.17 in 10.0 mi WNW 11.5 mph 18.4 mph N/A   Scattered Clouds
10:41 PM 26.6 °F 18.2 °F 15.8 °F 64% 30.18 in 10.0 mi West 8.1 mph - N/A   Clear
11:01 PM 26.6 °F 20.0 °F 15.8 °F 64% 30.19 in 10.0 mi West 5.8 mph - N/A   Clear
11:21 PM 26.6 °F 19.1 °F 14.0 °F 59% 30.19 in 10.0 mi West 6.9 mph - N/A   Clear
11:41 PM 24.8 °F 19.1 °F 15.8 °F 69% 30.20 in 10.0 mi West 4.6 mph - N/A   Clear